Simultaneous Nadir Overpasses (SNOs) Predictions

Prediction of SNOs between AQUA and METOP-B Satellite Orbit:

Table of predicted SNOs for the next 14.0 days since TLE Epoch: 9/2/2023
Index Date (AQUA) Time (AQUA) Lat,Lon (AQUA) SZA (AQUA ) Date (METOP-B) Time (METOP-B) Lat,Lon (METOP-B) SZA (METOP-B ) Distance(km) Time Diff (sec)
1 09/03/2023 01:26:54 -74.76, -25.58 112.99 09/03/2023 01:25:56 -74.74, -25.53 113.01 2.91 58
2 09/03/2023 02:16:20 74.82, 141.92 67.09 09/03/2023 02:16:35 74.78, 141.93 67.05 4.00 15
3 09/05/2023 18:29:31 74.22, -99.90 67.44 09/05/2023 18:28:25 74.12,-102.70 67.41 85.46 66
4 09/05/2023 19:19:06 -74.80, 66.30 111.94 09/05/2023 19:18:53 -74.79, 66.37 111.95 2.52 13
5 09/05/2023 20:08:32 74.86,-126.21 68.14 09/05/2023 20:09:32 74.83,-126.18 68.11 3.56 60
6 09/08/2023 12:21:52 74.77, -9.29 69.04 09/08/2023 12:21:10 74.75, -9.31 69.03 2.32 42
7 09/08/2023 13:11:17 -74.85, 158.17 110.87 09/08/2023 13:11:50 -74.84, 158.25 110.88 2.56 33
8 09/11/2023 05:24:35 -74.76, -84.90 109.96 09/11/2023 05:23:27 -74.76, -84.89 109.96 0.34 68
9 09/11/2023 06:14:01 74.82, 82.58 70.13 09/11/2023 06:14:05 74.84, 82.67 70.14 2.90 4
10 09/11/2023 07:03:31 -75.15,-110.62 109.53 09/11/2023 07:04:40 -75.16,-109.08 109.54 44.01 69
11 09/13/2023 23:16:44 -74.81, 6.98 108.87 09/13/2023 23:16:24 -74.78, 6.94 108.89 2.72 20
12 09/14/2023 00:06:10 74.87, 174.45 71.22 09/14/2023 00:07:02 74.86, 174.49 71.21 1.66 52



Historial Predications of SNOs between AQUA and METOP-B
